Voltar ao catálogo

STARLINK-32233

AtivoComunicaçõesVLEO
NORAD 60434·PAYLOAD·🇺🇸 United States

Lançado Aug 12, 2024 de Cape Canaveral Space Force Station

Loading…

Próximas Passagens (próximas 24 horas)

TLE

AtualizadoSource: CelesTrak SupGP

Época: Sep 15, 2026, 02:55 UTC

1 60434C 24144K   26258.12201389 -.00023715  00000+0 -70079-3 0  2584
2 60434  53.1587  53.1042 0001235  89.0627 154.1081 15.34396864    16

Acompanhe STARLINK-32233 em tempo real com AllMySat

Download on the App Store